ZKJEE NZWN-NZNP

Flight info

Callsign ZKJEE
Flight time 0h 55m
Altitude 9000
Route ATVIN Y631 MEVAX H499 SELTA
Aircraft DHC6/L-SDFGR/C

Departure

Time 2026-04-30 06:29
Airport Wellington International Airport (NZWN)

Arrival

Time 2026-04-30 07:24
Airport New Plymouth Airport (NZNP)
Time Latitude Longitude Altitude Speed Heading
2026-04-30 06:23 -41.31988 174.80748 46 ft 0 kts 183°
2026-04-30 06:28 -41.32218 174.80732 47 ft 76 kts 183°
2026-04-30 06:28 -41.32901 174.80686 261 ft 100 kts 183°
2026-04-30 06:29 -41.33574 174.80640 678 ft 103 kts 181°
2026-04-30 06:29 -41.34323 174.80529 1068 ft 111 kts 186°
2026-04-30 06:29 -41.35110 174.80438 1436 ft 116 kts 178°
2026-04-30 06:29 -41.35936 174.80445 1794 ft 122 kts 178°
2026-04-30 06:30 -41.36795 174.80453 2145 ft 126 kts 169°
2026-04-30 06:30 -41.37549 174.81004 2519 ft 126 kts 144°
2026-04-30 06:30 -41.38227 174.81749 2874 ft 127 kts 143°
2026-04-30 06:30 -41.38905 174.82501 3225 ft 127 kts 145°
2026-04-30 06:31 -41.39600 174.83240 3576 ft 128 kts 146°
2026-04-30 06:31 -41.40308 174.83965 3925 ft 129 kts 147°
2026-04-30 06:31 -41.41031 174.84697 4279 ft 130 kts 147°
2026-04-30 06:31 -41.41752 174.85429 4629 ft 131 kts 145°
2026-04-30 06:32 -41.42187 174.86499 4958 ft 145 kts 101°
2026-04-30 06:32 -41.41803 174.87776 5314 ft 158 kts 52°
2026-04-30 06:32 -41.40937 174.88681 5691 ft 159 kts 39°
2026-04-30 06:32 -41.40013 174.89493 6040 ft 161 kts 38°
2026-04-30 06:33 -41.39076 174.90324 6393 ft 161 kts 39°
2026-04-30 06:33 -41.38153 174.91170 6742 ft 162 kts 40°
2026-04-30 06:33 -41.37233 174.92030 7090 ft 163 kts 40°
2026-04-30 06:33 -41.36314 174.92908 7440 ft 163 kts 41°
2026-04-30 06:34 -41.35385 174.93792 7791 ft 164 kts 40°
2026-04-30 06:34 -41.34454 174.94679 8142 ft 165 kts 41°
2026-04-30 06:34 -41.33522 174.95567 8491 ft 166 kts 40°
2026-04-30 06:34 -41.32448 174.96110 8821 ft 167 kts
2026-04-30 06:35 -41.31255 174.96176 8969 ft 177 kts
2026-04-30 06:35 -41.29988 174.96177 9005 ft 189 kts
2026-04-30 06:35 -41.28620 174.96189 9006 ft 198 kts
2026-04-30 06:35 -41.27242 174.96223 9004 ft 203 kts
2026-04-30 06:36 -41.25828 174.96273 9002 ft 206 kts
2026-04-30 06:36 -41.24370 174.96344 9000 ft 208 kts
2026-04-30 06:36 -41.22916 174.96420 9000 ft 209 kts
2026-04-30 06:36 -41.21473 174.96495 8999 ft 209 kts
2026-04-30 06:37 -41.20021 174.96576 8999 ft 209 kts
2026-04-30 06:37 -41.18564 174.96663 8999 ft 209 kts
2026-04-30 06:37 -41.17108 174.96743 8999 ft 209 kts
2026-04-30 06:37 -41.15678 174.96549 8997 ft 209 kts 341°
2026-04-30 06:38 -41.14353 174.95770 9004 ft 208 kts 331°
2026-04-30 06:38 -41.13079 174.94882 9000 ft 208 kts 329°
2026-04-30 06:38 -41.11813 174.93974 8999 ft 208 kts 329°
2026-04-30 06:38 -41.10542 174.93049 9009 ft 208 kts 328°
2026-04-30 06:39 -41.09226 174.92099 8980 ft 218 kts 330°
2026-04-30 06:39 -41.07908 174.91180 8982 ft 213 kts 330°
2026-04-30 06:39 -41.06618 174.90278 8994 ft 210 kts 330°
2026-04-30 06:39 -41.05328 174.89375 8997 ft 209 kts 330°
2026-04-30 06:40 -41.04042 174.88476 8998 ft 208 kts 330°
2026-04-30 06:40 -41.02743 174.87573 8999 ft 208 kts 330°
2026-04-30 06:40 -41.01457 174.86700 8999 ft 208 kts 331°
2026-04-30 06:40 -41.00175 174.85837 8999 ft 208 kts 331°
2026-04-30 06:41 -40.98877 174.84965 8999 ft 208 kts 331°
2026-04-30 06:41 -40.97588 174.84106 8986 ft 209 kts 331°
2026-04-30 06:41 -40.96295 174.83224 8957 ft 210 kts 330°
2026-04-30 06:41 -40.95001 174.82348 8992 ft 208 kts 331°
2026-04-30 06:42 -40.93725 174.81490 8997 ft 208 kts 331°
2026-04-30 06:42 -40.92432 174.80621 8999 ft 208 kts 331°
2026-04-30 06:42 -40.91125 174.79742 8999 ft 208 kts 331°
2026-04-30 06:42 -40.89859 174.78891 9014 ft 207 kts 331°
2026-04-30 06:43 -40.88575 174.78028 9025 ft 207 kts 331°
2026-04-30 06:43 -40.87281 174.77159 9028 ft 207 kts 331°
2026-04-30 06:43 -40.86003 174.76300 9028 ft 208 kts 331°
2026-04-30 06:43 -40.84704 174.75427 9028 ft 208 kts 331°
2026-04-30 06:44 -40.83405 174.74555 9028 ft 208 kts 331°
2026-04-30 06:44 -40.82124 174.73699 9028 ft 208 kts 332°
2026-04-30 06:44 -40.80817 174.72834 9027 ft 208 kts 331°
2026-04-30 06:44 -40.79531 174.71981 9028 ft 208 kts 332°
2026-04-30 06:45 -40.78235 174.71120 9028 ft 208 kts 331°
2026-04-30 06:45 -40.76927 174.70250 9025 ft 208 kts 331°
2026-04-30 06:45 -40.75636 174.69398 9024 ft 208 kts 331°
2026-04-30 06:45 -40.74338 174.68533 9023 ft 208 kts 331°
2026-04-30 06:46 -40.73039 174.67680 9022 ft 208 kts 332°
2026-04-30 06:46 -40.71662 174.67159 9026 ft 209 kts 353°
2026-04-30 06:46 -40.70216 174.67048 9025 ft 209 kts 359°
2026-04-30 06:46 -40.68750 174.67011 9022 ft 209 kts 360°
2026-04-30 06:47 -40.67296 174.66985 9022 ft 209 kts
2026-04-30 06:47 -40.65843 174.66961 9022 ft 209 kts
2026-04-30 06:47 -40.64391 174.66938 9022 ft 209 kts
2026-04-30 06:47 -40.62917 174.66914 9021 ft 209 kts
2026-04-30 06:48 -40.61464 174.66890 9005 ft 210 kts
2026-04-30 06:48 -40.60012 174.66866 8999 ft 210 kts 360°
2026-04-30 06:48 -40.58562 174.66843 8987 ft 210 kts
2026-04-30 06:48 -40.57081 174.66819 8982 ft 210 kts
2026-04-30 06:49 -40.55630 174.66796 8980 ft 210 kts
2026-04-30 06:49 -40.54164 174.66773 8979 ft 209 kts
2026-04-30 06:49 -40.52691 174.66750 8978 ft 209 kts
2026-04-30 06:49 -40.51245 174.66727 8978 ft 209 kts
2026-04-30 06:50 -40.49785 174.66704 8980 ft 209 kts
2026-04-30 06:50 -40.48344 174.66681 8996 ft 208 kts
2026-04-30 06:50 -40.46982 174.66659 8999 ft 209 kts
2026-04-30 06:50 -40.45530 174.66636 9000 ft 209 kts
2026-04-30 06:51 -40.44078 174.66613 9001 ft 209 kts
2026-04-30 06:51 -40.42636 174.66590 9001 ft 209 kts 360°
2026-04-30 06:51 -40.41171 174.66568 8992 ft 210 kts
2026-04-30 06:51 -40.39717 174.66547 8989 ft 210 kts
2026-04-30 06:52 -40.38258 174.66526 8987 ft 209 kts
2026-04-30 06:52 -40.36802 174.66504 8986 ft 209 kts 360°
2026-04-30 06:52 -40.35332 174.66462 8986 ft 209 kts 359°
2026-04-30 06:52 -40.33883 174.66413 8985 ft 209 kts 359°
2026-04-30 06:53 -40.32424 174.66368 8985 ft 209 kts 359°
2026-04-30 06:53 -40.30972 174.66336 8985 ft 209 kts 359°
2026-04-30 06:53 -40.29510 174.66290 8985 ft 209 kts 359°
2026-04-30 06:53 -40.28056 174.66247 8988 ft 209 kts 359°
2026-04-30 06:54 -40.26612 174.66203 8998 ft 209 kts 359°
2026-04-30 06:54 -40.25163 174.66164 8999 ft 209 kts 359°
2026-04-30 06:54 -40.23683 174.66117 8990 ft 210 kts 359°
2026-04-30 06:54 -40.22243 174.66069 8987 ft 210 kts 359°
2026-04-30 06:55 -40.20770 174.66020 8986 ft 210 kts 359°
2026-04-30 06:55 -40.19311 174.65978 8986 ft 210 kts 359°
2026-04-30 06:55 -40.17860 174.65932 8986 ft 210 kts 359°
2026-04-30 06:55 -40.16404 174.65894 8986 ft 210 kts 359°
2026-04-30 06:56 -40.14941 174.65848 8989 ft 209 kts 359°
2026-04-30 06:56 -40.13492 174.65801 8989 ft 210 kts 359°
2026-04-30 06:56 -40.12024 174.65757 8990 ft 210 kts 359°
2026-04-30 06:56 -40.10565 174.65720 8990 ft 210 kts 359°
2026-04-30 06:57 -40.09103 174.65674 8990 ft 210 kts 359°
2026-04-30 06:57 -40.07648 174.65630 8990 ft 210 kts 359°
2026-04-30 06:57 -40.06666 174.65606 8982 ft 210 kts 359°
2026-04-30 06:57 -40.05207 174.65563 8976 ft 210 kts 359°
2026-04-30 06:58 -40.03767 174.65517 8973 ft 210 kts 359°
2026-04-30 06:58 -40.02314 174.65480 8972 ft 210 kts 359°
2026-04-30 06:58 -40.00815 174.65434 8972 ft 209 kts 359°
2026-04-30 06:58 -39.99376 174.65387 8972 ft 209 kts 359°
2026-04-30 06:59 -39.97914 174.65339 8996 ft 208 kts 359°
2026-04-30 06:59 -39.96472 174.65296 9003 ft 208 kts 359°
2026-04-30 06:59 -39.95010 174.65251 9004 ft 209 kts 359°
2026-04-30 06:59 -39.93585 174.65205 9005 ft 209 kts 359°
2026-04-30 07:00 -39.92109 174.65160 9005 ft 209 kts 359°
2026-04-30 07:00 -39.90636 174.65115 9005 ft 209 kts 359°
2026-04-30 07:00 -39.89212 174.65074 8993 ft 210 kts 359°
2026-04-30 07:00 -39.87748 174.65041 8985 ft 210 kts 359°
2026-04-30 07:01 -39.86284 174.64994 8982 ft 210 kts 359°
2026-04-30 07:01 -39.84806 174.64944 8984 ft 209 kts 359°
2026-04-30 07:01 -39.83367 174.64895 8997 ft 209 kts 359°
2026-04-30 07:01 -39.81910 174.64852 8999 ft 209 kts 359°
2026-04-30 07:02 -39.80457 174.64806 9003 ft 209 kts 359°
2026-04-30 07:02 -39.79015 174.64758 9006 ft 209 kts 359°
2026-04-30 07:02 -39.77565 174.64709 9007 ft 209 kts 359°
2026-04-30 07:02 -39.76110 174.64666 9007 ft 209 kts 359°
2026-04-30 07:03 -39.74658 174.64620 9008 ft 209 kts 359°
2026-04-30 07:03 -39.73200 174.64571 9008 ft 209 kts 359°
2026-04-30 07:03 -39.71738 174.64524 8998 ft 210 kts 359°
2026-04-30 07:03 -39.70297 174.64438 8980 ft 210 kts 352°
2026-04-30 07:04 -39.68923 174.63778 8988 ft 207 kts 331°
2026-04-30 07:04 -39.67676 174.62846 8984 ft 207 kts 326°
2026-04-30 07:04 -39.66445 174.61890 8995 ft 206 kts 327°
2026-04-30 07:04 -39.65199 174.60975 8996 ft 207 kts 329°
2026-04-30 07:05 -39.62662 174.59252 9008 ft 207 kts 331°
2026-04-30 07:05 -39.61360 174.58387 9011 ft 207 kts 330°
2026-04-30 07:05 -39.60102 174.57530 9010 ft 207 kts 330°
2026-04-30 07:06 -39.58821 174.56689 9009 ft 207 kts 332°
2026-04-30 07:06 -39.57531 174.55861 9008 ft 207 kts 332°
2026-04-30 07:06 -39.56243 174.55016 9007 ft 207 kts 331°
2026-04-30 07:06 -39.54963 174.54169 9006 ft 207 kts 331°
2026-04-30 07:07 -39.53679 174.53315 9001 ft 207 kts 330°
2026-04-30 07:07 -39.52390 174.52440 9001 ft 207 kts 330°
2026-04-30 07:07 -39.51108 174.51583 9001 ft 207 kts 331°
2026-04-30 07:07 -39.49858 174.50735 9001 ft 207 kts 330°
2026-04-30 07:08 -39.48557 174.49878 9002 ft 207 kts 332°
2026-04-30 07:08 -39.47263 174.49046 9001 ft 207 kts 332°
2026-04-30 07:08 -39.45988 174.48209 9003 ft 207 kts 331°
2026-04-30 07:08 -39.44712 174.47347 9003 ft 207 kts 330°
2026-04-30 07:09 -39.43445 174.46481 9001 ft 207 kts 330°
2026-04-30 07:09 -39.42168 174.45634 9001 ft 207 kts 331°
2026-04-30 07:09 -39.40890 174.44794 9001 ft 207 kts 330°
2026-04-30 07:09 -39.39609 174.43941 9002 ft 207 kts 331°
2026-04-30 07:10 -39.38321 174.43086 9002 ft 207 kts 331°
2026-04-30 07:10 -39.37035 174.42235 9001 ft 207 kts 331°
2026-04-30 07:10 -39.35742 174.41377 8994 ft 207 kts 331°
2026-04-30 07:10 -39.34475 174.40535 8992 ft 207 kts 331°
2026-04-30 07:11 -39.33183 174.39691 8991 ft 207 kts 331°
2026-04-30 07:11 -39.31897 174.38843 8990 ft 207 kts 331°
2026-04-30 07:11 -39.30615 174.37999 8990 ft 207 kts 332°
2026-04-30 07:11 -39.29337 174.37163 8990 ft 207 kts 331°
2026-04-30 07:12 -39.28089 174.36337 8989 ft 207 kts 331°
2026-04-30 07:12 -39.26810 174.35499 8988 ft 207 kts 331°
2026-04-30 07:12 -39.25509 174.34643 8988 ft 207 kts 331°
2026-04-30 07:12 -39.24228 174.33795 8988 ft 207 kts 331°
2026-04-30 07:13 -39.22948 174.32951 9013 ft 205 kts 331°
2026-04-30 07:13 -39.21684 174.32123 9026 ft 205 kts 331°
2026-04-30 07:13 -39.20409 174.31282 9029 ft 206 kts 331°
2026-04-30 07:13 -39.19130 174.30451 9030 ft 206 kts 331°
2026-04-30 07:14 -39.17856 174.29615 9029 ft 205 kts 330°
2026-04-30 07:14 -39.16776 174.28496 9020 ft 200 kts 301°
2026-04-30 07:14 -39.16377 174.26854 8952 ft 185 kts 270°
2026-04-30 07:14 -39.16337 174.25235 8698 ft 174 kts 266°
2026-04-30 07:15 -39.16210 174.23709 8445 ft 171 kts 275°
2026-04-30 07:15 -39.15902 174.22243 8195 ft 169 kts 282°
2026-04-30 07:15 -39.15621 174.20803 7944 ft 164 kts 275°
2026-04-30 07:15 -39.15367 174.19368 7693 ft 163 kts 278°
2026-04-30 07:16 -39.15092 174.17966 7443 ft 162 kts 279°
2026-04-30 07:16 -39.14812 174.16547 7189 ft 161 kts 279°
2026-04-30 07:16 -39.14541 174.15164 6941 ft 160 kts 279°
2026-04-30 07:16 -39.14271 174.13776 6690 ft 159 kts 279°
2026-04-30 07:17 -39.14004 174.12395 6441 ft 159 kts 279°
2026-04-30 07:17 -39.13738 174.11008 6189 ft 158 kts 279°
2026-04-30 07:17 -39.13217 174.08263 5690 ft 158 kts 279°
2026-04-30 07:18 -39.12959 174.06889 5440 ft 157 kts 279°
2026-04-30 07:18 -39.12692 174.05528 5190 ft 158 kts 281°
2026-04-30 07:18 -39.12078 174.04366 4923 ft 164 kts 323°
2026-04-30 07:18 -39.11044 174.03779 4695 ft 163 kts 342°
2026-04-30 07:19 -39.09972 174.03318 4447 ft 163 kts 342°
2026-04-30 07:19 -39.08899 174.02771 4194 ft 164 kts 338°
2026-04-30 07:19 -39.07865 174.02163 3946 ft 165 kts 337°
2026-04-30 07:19 -39.06817 174.01742 3710 ft 148 kts
2026-04-30 07:20 -39.06009 174.02253 3447 ft 119 kts 62°
2026-04-30 07:20 -39.05687 174.03144 3224 ft 108 kts 78°
2026-04-30 07:20 -39.05428 174.04042 2964 ft 108 kts 82°
2026-04-30 07:20 -39.05152 174.04977 2690 ft 115 kts 81°
2026-04-30 07:21 -39.04870 174.05885 2458 ft 114 kts 80°
2026-04-30 07:21 -39.04553 174.06855 2144 ft 124 kts 76°
2026-04-30 07:21 -39.04207 174.07889 1877 ft 127 kts 73°
2026-04-30 07:21 -39.03847 174.08937 1626 ft 127 kts 74°
2026-04-30 07:22 -39.03138 174.10981 1176 ft 114 kts 77°
2026-04-30 07:22 -39.02836 174.11835 954 ft 100 kts 78°
2026-04-30 07:22 -39.02585 174.12626 707 ft 92 kts 76°
2026-04-30 07:23 -39.02383 174.13342 593 ft 77 kts 70°
2026-04-30 07:23 -39.02144 174.13981 533 ft 81 kts 68°
2026-04-30 07:23 -39.01896 174.14631 509 ft 81 kts 67°
2026-04-30 07:23 -39.01650 174.15271 483 ft 82 kts 67°
2026-04-30 07:24 -39.01419 174.15943 410 ft 85 kts 68°
2026-04-30 07:24 -39.01212 174.16575 258 ft 70 kts 66°
2026-04-30 07:24 -39.01014 174.17083 106 ft 51 kts 62°
2026-04-30 07:24 -39.00950 174.17237 106 ft 0 kts 62°